owner,sensor,date,latitude,longitude,sea_surface_height_above_sea_level,qcFlag 
TCOON,ioos:station:TCOON:009:1,2017-09-01T00:18:00Z,27.8398,-97.0727,1.365,1111122 
TCOON,ioos:station:TCOON:009:1,2017-09-01T01:18:00Z,27.8398,-97.0727,1.387,1111122 
TCOON,ioos:station:TCOON:009:1,2017-09-01T02:18:00Z,27.8398,-97.0727,1.45,1111122 
TCOON,ioos:station:TCOON:009:1,2017-09-01T03:18:00Z,27.8398,-97.0727,1.536,1111122 
TCOON,ioos:station:TCOON:009:1,2017-09-01T04:18:00Z,27.8398,-97.0727,1.576,1111122 
TCOON,ioos:station:TCOON:009:1,2017-09-01T05:18:00Z,27.8398,-97.0727,1.58,1111122 
TCOON,ioos:station:TCOON:009:1,2017-09-01T06:18:00Z,27.8398,-97.0727,1.621,1111122 
TCOON,ioos:station:TCOON:009:1,2017-09-01T07:18:00Z,27.8398,-97.0727,1.647,1111122 
TCOON,ioos:station:TCOON:009:1,2017-09-01T08:18:00Z,27.8398,-97.0727,1.654,1111122 
TCOON,ioos:station:TCOON:009:1,2017-09-01T09:18:00Z,27.8398,-97.0727,1.652,1111122 
TCOON,ioos:station:TCOON:009:1,2017-09-01T10:18:00Z,27.8398,-97.0727,1.678,1111122 
TCOON,ioos:station:TCOON:009:1,2017-09-01T11:18:00Z,27.8398,-97.0727,1.68,1111122 
TCOON,ioos:station:TCOON:009:1,2017-09-01T12:18:00Z,27.8398,-97.0727,1.701,1111122 
TCOON,ioos:station:TCOON:009:1,2017-09-01T13:18:00Z,27.8398,-97.0727,1.72,1111122 
TCOON,ioos:station:TCOON:009:1,2017-09-01T14:18:00Z,27.8398,-97.0727,1.717,1111122 
TCOON,ioos:station:TCOON:009:1,2017-09-01T15:18:00Z,27.8398,-97.0727,1.709,1111122 
TCOON,ioos:station:TCOON:009:1,2017-09-01T16:18:00Z,27.8398,-97.0727,1.708,1111122 
TCOON,ioos:station:TCOON:009:1,2017-09-01T17:18:00Z,27.8398,-97.0727,1.711,1111122 
TCOON,ioos:station:TCOON:009:1,2017-09-01T18:18:00Z,27.8398,-97.0727,1.692,1111122 
TCOON,ioos:station:TCOON:009:1,2017-09-01T19:18:00Z,27.8398,-97.0727,1.618,1111122 
TCOON,ioos:station:TCOON:009:1,2017-09-01T20:18:00Z,27.8398,-97.0727,1.591,1111122 
TCOON,ioos:station:TCOON:009:1,2017-09-01T21:18:00Z,27.8398,-97.0727,1.53,1111122 
TCOON,ioos:station:TCOON:009:1,2017-09-01T22:18:00Z,27.8398,-97.0727,1.552,1111122 
TCOON,ioos:station:TCOON:009:1,2017-09-02T00:18:00Z,27.8398,-97.0727,1.486,1111122 
TCOON,ioos:station:TCOON:009:1,2017-09-02T01:18:00Z,27.8398,-97.0727,1.483,1111122 
TCOON,ioos:station:TCOON:009:1,2017-09-02T02:18:00Z,27.8398,-97.0727,1.514,1111122 
TCOON,ioos:station:TCOON:009:1,2017-09-02T03:18:00Z,27.8398,-97.0727,1.574,1111122 
TCOON,ioos:station:TCOON:009:1,2017-09-02T04:18:00Z,27.8398,-97.0727,1.625,1111122 
TCOON,ioos:station:TCOON:009:1,2017-09-02T05:18:00Z,27.8398,-97.0727,1.688,1111122 
TCOON,ioos:station:TCOON:009:1,2017-09-02T06:18:00Z,27.8398,-97.0727,1.691,1111122 
TCOON,ioos:station:TCOON:009:1,2017-09-02T07:18:00Z,27.8398,-97.0727,1.715,1111122 
TCOON,ioos:station:TCOON:009:1,2017-09-02T08:18:00Z,27.8398,-97.0727,1.736,1111122 
TCOON,ioos:station:TCOON:009:1,2017-09-02T09:18:00Z,27.8398,-97.0727,1.745,1111122 
TCOON,ioos:station:TCOON:009:1,2017-09-02T10:18:00Z,27.8398,-97.0727,1.758,1111122 
TCOON,ioos:station:TCOON:009:1,2017-09-02T11:18:00Z,27.8398,-97.0727,1.718,1111122 
TCOON,ioos:station:TCOON:009:1,2017-09-02T12:18:00Z,27.8398,-97.0727,1.739,1111122 
TCOON,ioos:station:TCOON:009:1,2017-09-02T13:18:00Z,27.8398,-97.0727,1.742,1111122 
TCOON,ioos:station:TCOON:009:1,2017-09-02T14:18:00Z,27.8398,-97.0727,1.769,1111122 
TCOON,ioos:station:TCOON:009:1,2017-09-02T15:18:00Z,27.8398,-97.0727,1.756,1111122 
TCOON,ioos:station:TCOON:009:1,2017-09-02T16:18:00Z,27.8398,-97.0727,1.769,1111122 
TCOON,ioos:station:TCOON:009:1,2017-09-02T17:18:00Z,27.8398,-97.0727,1.768,1111122 
TCOON,ioos:station:TCOON:009:1,2017-09-02T18:18:00Z,27.8398,-97.0727,1.712,1111122 
TCOON,ioos:station:TCOON:009:1,2017-09-02T19:18:00Z,27.8398,-97.0727,1.721,1111122 
TCOON,ioos:station:TCOON:009:1,2017-09-02T20:18:00Z,27.8398,-97.0727,1.655,1111122 
TCOON,ioos:station:TCOON:009:1,2017-09-02T21:18:00Z,27.8398,-97.0727,1.631,1111122 
TCOON,ioos:station:TCOON:009:1,2017-09-02T22:18:00Z,27.8398,-97.0727,1.556,1111122 
TCOON,ioos:station:TCOON:009:1,2017-09-02T23:18:00Z,27.8398,-97.0727,1.536,1111122 
TCOON,ioos:station:TCOON:009:1,2017-09-03T00:18:00Z,27.8398,-97.0727,1.479,1111122 
TCOON,ioos:station:TCOON:009:1,2017-09-03T01:18:00Z,27.8398,-97.0727,1.503,1111122 
TCOON,ioos:station:TCOON:009:1,2017-09-03T02:18:00Z,27.8398,-97.0727,1.52,1111122 
TCOON,ioos:station:TCOON:009:1,2017-09-03T03:18:00Z,27.8398,-97.0727,1.59,1111122 
TCOON,ioos:station:TCOON:009:1,2017-09-03T04:18:00Z,27.8398,-97.0727,1.645,1111122 
TCOON,ioos:station:TCOON:009:1,2017-09-03T05:18:00Z,27.8398,-97.0727,1.687,1111122 
TCOON,ioos:station:TCOON:009:1,2017-09-03T06:18:00Z,27.8398,-97.0727,1.715,1111122 
TCOON,ioos:station:TCOON:009:1,2017-09-03T07:18:00Z,27.8398,-97.0727,1.756,1111122 
TCOON,ioos:station:TCOON:009:1,2017-09-03T08:18:00Z,27.8398,-97.0727,1.759,1111122 
TCOON,ioos:station:TCOON:009:1,2017-09-03T09:18:00Z,27.8398,-97.0727,1.772,1111122 
TCOON,ioos:station:TCOON:009:1,2017-09-03T10:18:00Z,27.8398,-97.0727,1.766,1111122 
TCOON,ioos:station:TCOON:009:1,2017-09-03T11:18:00Z,27.8398,-97.0727,1.775,1111122 
TCOON,ioos:station:TCOON:009:1,2017-09-03T12:18:00Z,27.8398,-97.0727,1.781,1111122 
TCOON,ioos:station:TCOON:009:1,2017-09-03T13:18:00Z,27.8398,-97.0727,1.779,1111122 
TCOON,ioos:station:TCOON:009:1,2017-09-03T14:18:00Z,27.8398,-97.0727,1.765,1111122 
TCOON,ioos:station:TCOON:009:1,2017-09-03T15:18:00Z,27.8398,-97.0727,1.764,1111122 
TCOON,ioos:station:TCOON:009:1,2017-09-03T16:18:00Z,27.8398,-97.0727,1.763,1111122 
TCOON,ioos:station:TCOON:009:1,2017-09-03T17:18:00Z,27.8398,-97.0727,1.79,1111122 
TCOON,ioos:station:TCOON:009:1,2017-09-03T18:18:00Z,27.8398,-97.0727,1.786,1111122 
TCOON,ioos:station:TCOON:009:1,2017-09-03T19:18:00Z,27.8398,-97.0727,1.746,1111122 
TCOON,ioos:station:TCOON:009:1,2017-09-03T20:18:00Z,27.8398,-97.0727,1.742,1111122 
TCOON,ioos:station:TCOON:009:1,2017-09-03T21:18:00Z,27.8398,-97.0727,1.695,1111122 
TCOON,ioos:station:TCOON:009:1,2017-09-03T22:18:00Z,27.8398,-97.0727,1.629,1111122 
TCOON,ioos:station:TCOON:009:1,2017-09-03T23:18:00Z,27.8398,-97.0727,1.577,1111122 
TCOON,ioos:station:TCOON:009:1,2017-09-04T00:18:00Z,27.8398,-97.0727,1.549,1111122 
TCOON,ioos:station:TCOON:009:1,2017-09-04T01:18:00Z,27.8398,-97.0727,1.529,1111122 
TCOON,ioos:station:TCOON:009:1,2017-09-04T02:18:00Z,27.8398,-97.0727,1.564,1111122 
TCOON,ioos:station:TCOON:009:1,2017-09-04T03:18:00Z,27.8398,-97.0727,1.609,1111122 
TCOON,ioos:station:TCOON:009:1,2017-09-04T04:18:00Z,27.8398,-97.0727,1.62,1111122 
TCOON,ioos:station:TCOON:009:1,2017-09-04T05:18:00Z,27.8398,-97.0727,1.698,1111122 
TCOON,ioos:station:TCOON:009:1,2017-09-04T06:18:00Z,27.8398,-97.0727,1.761,1111122 
TCOON,ioos:station:TCOON:009:1,2017-09-04T07:18:00Z,27.8398,-97.0727,1.769,1111122 
TCOON,ioos:station:TCOON:009:1,2017-09-04T08:18:00Z,27.8398,-97.0727,1.79,1111122 
TCOON,ioos:station:TCOON:009:1,2017-09-04T09:18:00Z,27.8398,-97.0727,1.814,1111122 
TCOON,ioos:station:TCOON:009:1,2017-09-04T10:18:00Z,27.8398,-97.0727,1.816,1111122 
TCOON,ioos:station:TCOON:009:1,2017-09-04T11:18:00Z,27.8398,-97.0727,1.818,1111122 
TCOON,ioos:station:TCOON:009:1,2017-09-04T12:18:00Z,27.8398,-97.0727,1.86,1111122 
TCOON,ioos:station:TCOON:009:1,2017-09-04T13:18:00Z,27.8398,-97.0727,1.832,1111122 
TCOON,ioos:station:TCOON:009:1,2017-09-04T14:18:00Z,27.8398,-97.0727,1.822,1111122 
TCOON,ioos:station:TCOON:009:1,2017-09-04T15:18:00Z,27.8398,-97.0727,1.834,1111122 
TCOON,ioos:station:TCOON:009:1,2017-09-04T16:18:00Z,27.8398,-97.0727,1.857,1111122 
TCOON,ioos:station:TCOON:009:1,2017-09-04T17:18:00Z,27.8398,-97.0727,1.867,1111122 
TCOON,ioos:station:TCOON:009:1,2017-09-04T18:18:00Z,27.8398,-97.0727,1.871,1111122 
TCOON,ioos:station:TCOON:009:1,2017-09-04T19:18:00Z,27.8398,-97.0727,1.856,1111122 
TCOON,ioos:station:TCOON:009:1,2017-09-04T20:18:00Z,27.8398,-97.0727,1.855,1111122 
TCOON,ioos:station:TCOON:009:1,2017-09-04T21:18:00Z,27.8398,-97.0727,1.828,1111122 
TCOON,ioos:station:TCOON:009:1,2017-09-04T22:18:00Z,27.8398,-97.0727,1.748,1111122 
TCOON,ioos:station:TCOON:009:1,2017-09-05T00:18:00Z,27.8398,-97.0727,1.661,1111122 
TCOON,ioos:station:TCOON:009:1,2017-09-05T01:18:00Z,27.8398,-97.0727,1.59,1111122 
TCOON,ioos:station:TCOON:009:1,2017-09-05T02:18:00Z,27.8398,-97.0727,1.61,1111122 
TCOON,ioos:station:TCOON:009:1,2017-09-05T03:18:00Z,27.8398,-97.0727,1.619,1111122 
TCOON,ioos:station:TCOON:009:1,2017-09-05T04:18:00Z,27.8398,-97.0727,1.65,1111122 
TCOON,ioos:station:TCOON:009:1,2017-09-05T05:18:00Z,27.8398,-97.0727,1.7,1111122 
TCOON,ioos:station:TCOON:009:1,2017-09-05T06:18:00Z,27.8398,-97.0727,1.746,1111122 
TCOON,ioos:station:TCOON:009:1,2017-09-05T07:18:00Z,27.8398,-97.0727,1.791,1111122 
TCOON,ioos:station:TCOON:009:1,2017-09-05T08:18:00Z,27.8398,-97.0727,1.846,1111122 
TCOON,ioos:station:TCOON:009:1,2017-09-05T09:18:00Z,27.8398,-97.0727,1.85,1111122 
TCOON,ioos:station:TCOON:009:1,2017-09-05T10:18:00Z,27.8398,-97.0727,1.852,1111122 
TCOON,ioos:station:TCOON:009:1,2017-09-05T11:18:00Z,27.8398,-97.0727,1.831,1111122 
TCOON,ioos:station:TCOON:009:1,2017-09-05T12:18:00Z,27.8398,-97.0727,1.832,1111122 
TCOON,ioos:station:TCOON:009:1,2017-09-05T13:18:00Z,27.8398,-97.0727,1.842,1111122 
TCOON,ioos:station:TCOON:009:1,2017-09-05T14:18:00Z,27.8398,-97.0727,1.847,1111122 
TCOON,ioos:station:TCOON:009:1,2017-09-05T15:30:00Z,27.8398,-97.0727,1.856,1111122 
TCOON,ioos:station:TCOON:009:1,2017-09-05T16:18:00Z,27.8398,-97.0727,1.836,1111122 
TCOON,ioos:station:TCOON:009:1,2017-09-05T17:24:00Z,27.8398,-97.0727,1.896,1111122 
TCOON,ioos:station:TCOON:009:1,2017-09-05T18:18:00Z,27.8398,-97.0727,1.904,1111122 
TCOON,ioos:station:TCOON:009:1,2017-09-05T19:18:00Z,27.8398,-97.0727,1.901,1111122 
TCOON,ioos:station:TCOON:009:1,2017-09-05T20:18:00Z,27.8398,-97.0727,1.905,1111122 
TCOON,ioos:station:TCOON:009:1,2017-09-05T21:18:00Z,27.8398,-97.0727,1.847,1111122 
TCOON,ioos:station:TCOON:009:1,2017-09-05T22:18:00Z,27.8398,-97.0727,1.807,1111122 
TCOON,ioos:station:TCOON:009:1,2017-09-05T23:18:00Z,27.8398,-97.0727,1.777,1111122 
TCOON,ioos:station:TCOON:009:1,2017-09-06T00:18:00Z,27.8398,-97.0727,1.714,1111122 
TCOON,ioos:station:TCOON:009:1,2017-09-06T01:18:00Z,27.8398,-97.0727,1.674,1111122 
TCOON,ioos:station:TCOON:009:1,2017-09-07T14:36:00Z,27.8398,-97.0727,1.888,1111122 
TCOON,ioos:station:TCOON:009:1,2017-09-07T15:18:00Z,27.8398,-97.0727,1.861,1111122 
TCOON,ioos:station:TCOON:009:1,2017-09-07T16:18:00Z,27.8398,-97.0727,1.843,1111122 
TCOON,ioos:station:TCOON:009:1,2017-09-07T17:18:00Z,27.8398,-97.0727,1.875,1111122 
TCOON,ioos:station:TCOON:009:1,2017-09-07T18:24:00Z,27.8398,-97.0727,1.923,1111122 
TCOON,ioos:station:TCOON:009:1,2017-09-07T19:18:00Z,27.8398,-97.0727,1.926,1111122 
TCOON,ioos:station:TCOON:009:1,2017-09-07T20:18:00Z,27.8398,-97.0727,1.96,1111122 
TCOON,ioos:station:TCOON:009:1,2017-09-08T05:42:00Z,27.8398,-97.0727,1.869,1111122 
TCOON,ioos:station:TCOON:009:1,2017-09-08T06:18:00Z,27.8398,-97.0727,1.894,1111122 
TCOON,ioos:station:TCOON:009:1,2017-09-08T07:18:00Z,27.8398,-97.0727,1.916,1111122 
TCOON,ioos:station:TCOON:009:1,2017-09-08T08:18:00Z,27.8398,-97.0727,1.958,1111122 
TCOON,ioos:station:TCOON:009:1,2017-09-08T09:18:00Z,27.8398,-97.0727,1.971,1111122 
TCOON,ioos:station:TCOON:009:1,2017-09-08T10:18:00Z,27.8398,-97.0727,1.998,1111122 
TCOON,ioos:station:TCOON:009:1,2017-09-08T11:18:00Z,27.8398,-97.0727,1.976,1111122 
TCOON,ioos:station:TCOON:009:1,2017-09-08T12:18:00Z,27.8398,-97.0727,1.957,1111122 
TCOON,ioos:station:TCOON:009:1,2017-09-08T13:18:00Z,27.8398,-97.0727,1.939,1111122 
TCOON,ioos:station:TCOON:009:1,2017-09-08T14:18:00Z,27.8398,-97.0727,1.921,1111122 
TCOON,ioos:station:TCOON:009:1,2017-09-08T15:18:00Z,27.8398,-97.0727,1.941,1111122 
TCOON,ioos:station:TCOON:009:1,2017-09-08T16:18:00Z,27.8398,-97.0727,1.93,1111122 
TCOON,ioos:station:TCOON:009:1,2017-09-08T17:18:00Z,27.8398,-97.0727,1.942,1111122 
TCOON,ioos:station:TCOON:009:1,2017-09-08T18:18:00Z,27.8398,-97.0727,1.941,1111122 
TCOON,ioos:station:TCOON:009:1,2017-09-08T19:18:00Z,27.8398,-97.0727,1.95,1111122 
TCOON,ioos:station:TCOON:009:1,2017-09-08T20:18:00Z,27.8398,-97.0727,2.012,1111122 
TCOON,ioos:station:TCOON:009:1,2017-09-08T21:18:00Z,27.8398,-97.0727,2.044,1111122 
TCOON,ioos:station:TCOON:009:1,2017-09-08T22:18:00Z,27.8398,-97.0727,2.024,1111122 
TCOON,ioos:station:TCOON:009:1,2017-09-08T23:18:00Z,27.8398,-97.0727,1.999,1111122 
TCOON,ioos:station:TCOON:009:1,2017-09-09T00:18:00Z,27.8398,-97.0727,1.992,1111122 
TCOON,ioos:station:TCOON:009:1,2017-09-09T01:18:00Z,27.8398,-97.0727,1.96,1111122 
TCOON,ioos:station:TCOON:009:1,2017-09-09T02:18:00Z,27.8398,-97.0727,1.969,1111122 
TCOON,ioos:station:TCOON:009:1,2017-09-09T03:18:00Z,27.8398,-97.0727,1.953,1111122 
TCOON,ioos:station:TCOON:009:1,2017-09-09T04:18:00Z,27.8398,-97.0727,1.918,1111122 
TCOON,ioos:station:TCOON:009:1,2017-09-09T05:18:00Z,27.8398,-97.0727,1.929,1111122 
TCOON,ioos:station:TCOON:009:1,2017-09-09T06:18:00Z,27.8398,-97.0727,1.941,1111122 
TCOON,ioos:station:TCOON:009:1,2017-09-09T07:18:00Z,27.8398,-97.0727,1.981,1111122 
TCOON,ioos:station:TCOON:009:1,2017-09-09T08:18:00Z,27.8398,-97.0727,2.012,1111122 
TCOON,ioos:station:TCOON:009:1,2017-09-09T09:18:00Z,27.8398,-97.0727,2.034,1111122 
TCOON,ioos:station:TCOON:009:1,2017-09-09T10:18:00Z,27.8398,-97.0727,2.067,1111122 
TCOON,ioos:station:TCOON:009:1,2017-09-09T11:18:00Z,27.8398,-97.0727,2.036,1111122 
TCOON,ioos:station:TCOON:009:1,2017-09-09T12:18:00Z,27.8398,-97.0727,2.027,1111122 
TCOON,ioos:station:TCOON:009:1,2017-09-09T13:18:00Z,27.8398,-97.0727,2.009,1111122 
TCOON,ioos:station:TCOON:009:1,2017-09-09T14:18:00Z,27.8398,-97.0727,1.996,1111122 
TCOON,ioos:station:TCOON:009:1,2017-09-09T15:18:00Z,27.8398,-97.0727,1.964,1111122 
TCOON,ioos:station:TCOON:009:1,2017-09-09T16:18:00Z,27.8398,-97.0727,1.957,1111122 
TCOON,ioos:station:TCOON:009:1,2017-09-09T17:18:00Z,27.8398,-97.0727,1.942,1111122 
TCOON,ioos:station:TCOON:009:1,2017-09-09T18:18:00Z,27.8398,-97.0727,1.971,1111122 
TCOON,ioos:station:TCOON:009:1,2017-09-09T19:18:00Z,27.8398,-97.0727,1.991,1111122 
TCOON,ioos:station:TCOON:009:1,2017-09-09T20:18:00Z,27.8398,-97.0727,2.036,1111122 
TCOON,ioos:station:TCOON:009:1,2017-09-09T21:18:00Z,27.8398,-97.0727,2.079,1111122 
TCOON,ioos:station:TCOON:009:1,2017-09-09T22:18:00Z,27.8398,-97.0727,2.065,1111122 
TCOON,ioos:station:TCOON:009:1,2017-09-09T23:18:00Z,27.8398,-97.0727,2.073,1111122 
TCOON,ioos:station:TCOON:009:1,2017-09-10T00:18:00Z,27.8398,-97.0727,2.081,1111122 
TCOON,ioos:station:TCOON:009:1,2017-09-10T01:18:00Z,27.8398,-97.0727,2.048,1111122 
TCOON,ioos:station:TCOON:009:1,2017-09-10T02:18:00Z,27.8398,-97.0727,2.057,1111122 
TCOON,ioos:station:TCOON:009:1,2017-09-10T03:18:00Z,27.8398,-97.0727,2.058,1111122 
TCOON,ioos:station:TCOON:009:1,2017-09-10T04:18:00Z,27.8398,-97.0727,2.03,1111122 
TCOON,ioos:station:TCOON:009:1,2017-09-10T05:18:00Z,27.8398,-97.0727,2.001,1111122 
TCOON,ioos:station:TCOON:009:1,2017-09-10T06:18:00Z,27.8398,-97.0727,2.012,1111122 
TCOON,ioos:station:TCOON:009:1,2017-09-10T07:18:00Z,27.8398,-97.0727,2.016,1111122 
TCOON,ioos:station:TCOON:009:1,2017-09-10T08:18:00Z,27.8398,-97.0727,2.021,1111122 
TCOON,ioos:station:TCOON:009:1,2017-09-10T09:18:00Z,27.8398,-97.0727,2.034,1111122 
TCOON,ioos:station:TCOON:009:1,2017-09-10T10:18:00Z,27.8398,-97.0727,2.025,1111122 
TCOON,ioos:station:TCOON:009:1,2017-09-10T11:18:00Z,27.8398,-97.0727,2.023,1111122 
TCOON,ioos:station:TCOON:009:1,2017-09-10T12:18:00Z,27.8398,-97.0727,1.998,1111122 
TCOON,ioos:station:TCOON:009:1,2017-09-10T13:18:00Z,27.8398,-97.0727,1.973,1111122 
TCOON,ioos:station:TCOON:009:1,2017-09-10T14:18:00Z,27.8398,-97.0727,1.942,1111122 
TCOON,ioos:station:TCOON:009:1,2017-09-10T15:18:00Z,27.8398,-97.0727,1.904,1111122 
TCOON,ioos:station:TCOON:009:1,2017-09-10T16:18:00Z,27.8398,-97.0727,1.898,1111122 
TCOON,ioos:station:TCOON:009:1,2017-09-10T17:18:00Z,27.8398,-97.0727,1.831,1111122 
TCOON,ioos:station:TCOON:009:1,2017-09-10T18:18:00Z,27.8398,-97.0727,1.858,1111122 
TCOON,ioos:station:TCOON:009:1,2017-09-10T19:18:00Z,27.8398,-97.0727,1.893,1111122 
TCOON,ioos:station:TCOON:009:1,2017-09-10T20:24:00Z,27.8398,-97.0727,1.934,1111122 
TCOON,ioos:station:TCOON:009:1,2017-09-10T21:18:00Z,27.8398,-97.0727,1.97,1111122 
TCOON,ioos:station:TCOON:009:1,2017-09-10T22:18:00Z,27.8398,-97.0727,2.01,1111122 
TCOON,ioos:station:TCOON:009:1,2017-09-10T23:18:00Z,27.8398,-97.0727,2.052,1111122 
TCOON,ioos:station:TCOON:009:1,2017-09-11T00:18:00Z,27.8398,-97.0727,1.981,1111122 
TCOON,ioos:station:TCOON:009:1,2017-09-11T01:18:00Z,27.8398,-97.0727,2.039,1111122 
TCOON,ioos:station:TCOON:009:1,2017-09-11T02:18:00Z,27.8398,-97.0727,2.049,1111122 
TCOON,ioos:station:TCOON:009:1,2017-09-11T03:18:00Z,27.8398,-97.0727,2.051,1111122 
TCOON,ioos:station:TCOON:009:1,2017-09-11T04:18:00Z,27.8398,-97.0727,2.068,1111122 
TCOON,ioos:station:TCOON:009:1,2017-09-11T05:18:00Z,27.8398,-97.0727,2.089,1111122 
TCOON,ioos:station:TCOON:009:1,2017-09-11T06:18:00Z,27.8398,-97.0727,2.089,1111122 
TCOON,ioos:station:TCOON:009:1,2017-09-11T07:18:00Z,27.8398,-97.0727,2.089,1111122 
TCOON,ioos:station:TCOON:009:1,2017-09-11T08:18:00Z,27.8398,-97.0727,2.103,1111122 
TCOON,ioos:station:TCOON:009:1,2017-09-11T09:18:00Z,27.8398,-97.0727,2.107,1111122 
TCOON,ioos:station:TCOON:009:1,2017-09-11T10:18:00Z,27.8398,-97.0727,2.102,1111122 
TCOON,ioos:station:TCOON:009:1,2017-09-11T11:18:00Z,27.8398,-97.0727,2.103,1111122 
TCOON,ioos:station:TCOON:009:1,2017-09-11T12:18:00Z,27.8398,-97.0727,2.084,1111122 
TCOON,ioos:station:TCOON:009:1,2017-09-11T13:18:00Z,27.8398,-97.0727,2.061,1111122 
TCOON,ioos:station:TCOON:009:1,2017-09-11T14:18:00Z,27.8398,-97.0727,2.018,1111122 
TCOON,ioos:station:TCOON:009:1,2017-09-11T15:18:00Z,27.8398,-97.0727,1.931,1111122 
TCOON,ioos:station:TCOON:009:1,2017-09-11T16:18:00Z,27.8398,-97.0727,1.922,1111122 
TCOON,ioos:station:TCOON:009:1,2017-09-11T17:18:00Z,27.8398,-97.0727,1.845,1111122 
TCOON,ioos:station:TCOON:009:1,2017-09-11T18:18:00Z,27.8398,-97.0727,1.853,1111122 
TCOON,ioos:station:TCOON:009:1,2017-09-11T19:18:00Z,27.8398,-97.0727,1.855,1111122 
TCOON,ioos:station:TCOON:009:1,2017-09-11T20:18:00Z,27.8398,-97.0727,1.899,1111122 
TCOON,ioos:station:TCOON:009:1,2017-09-11T21:18:00Z,27.8398,-97.0727,1.937,1111122 
TCOON,ioos:station:TCOON:009:1,2017-09-11T22:18:00Z,27.8398,-97.0727,2.007,1111122 
TCOON,ioos:station:TCOON:009:1,2017-09-11T23:18:00Z,27.8398,-97.0727,2.035,1111122 
TCOON,ioos:station:TCOON:009:1,2017-09-12T00:18:00Z,27.8398,-97.0727,2.061,1111122 
TCOON,ioos:station:TCOON:009:1,2017-09-12T01:18:00Z,27.8398,-97.0727,2.07,1111122 
TCOON,ioos:station:TCOON:009:1,2017-09-12T02:18:00Z,27.8398,-97.0727,2.064,1111122 
TCOON,ioos:station:TCOON:009:1,2017-09-12T03:18:00Z,27.8398,-97.0727,2.073,1111122 
TCOON,ioos:station:TCOON:009:1,2017-09-12T04:18:00Z,27.8398,-97.0727,2.083,1111122 
TCOON,ioos:station:TCOON:009:1,2017-09-12T05:18:00Z,27.8398,-97.0727,2.086,1111122 
TCOON,ioos:station:TCOON:009:1,2017-09-12T06:18:00Z,27.8398,-97.0727,2.099,1111122 
TCOON,ioos:station:TCOON:009:1,2017-09-12T07:18:00Z,27.8398,-97.0727,2.085,1111122 
TCOON,ioos:station:TCOON:009:1,2017-09-12T08:18:00Z,27.8398,-97.0727,2.085,1111122 
TCOON,ioos:station:TCOON:009:1,2017-09-12T09:18:00Z,27.8398,-97.0727,2.078,1111122 
TCOON,ioos:station:TCOON:009:1,2017-09-12T10:18:00Z,27.8398,-97.0727,2.078,1111122 
TCOON,ioos:station:TCOON:009:1,2017-09-12T11:18:00Z,27.8398,-97.0727,2.085,1111122 
TCOON,ioos:station:TCOON:009:1,2017-09-12T12:18:00Z,27.8398,-97.0727,2.057,1111122 
TCOON,ioos:station:TCOON:009:1,2017-09-12T13:18:00Z,27.8398,-97.0727,2.018,1111122 
TCOON,ioos:station:TCOON:009:1,2017-09-12T14:18:00Z,27.8398,-97.0727,1.98,1111122 
TCOON,ioos:station:TCOON:009:1,2017-09-12T15:18:00Z,27.8398,-97.0727,1.922,1111122 
TCOON,ioos:station:TCOON:009:1,2017-09-12T16:18:00Z,27.8398,-97.0727,1.848,1111122 
TCOON,ioos:station:TCOON:009:1,2017-09-12T17:18:00Z,27.8398,-97.0727,1.825,1111122 
TCOON,ioos:station:TCOON:009:1,2017-09-12T18:18:00Z,27.8398,-97.0727,1.713,1111122 
TCOON,ioos:station:TCOON:009:1,2017-09-12T19:18:00Z,27.8398,-97.0727,1.7,1111122 
TCOON,ioos:station:TCOON:009:1,2017-09-12T20:18:00Z,27.8398,-97.0727,1.705,1111122 
TCOON,ioos:station:TCOON:009:1,2017-09-12T21:18:00Z,27.8398,-97.0727,1.726,1111122 
TCOON,ioos:station:TCOON:009:1,2017-09-12T22:18:00Z,27.8398,-97.0727,1.766,1111122 
TCOON,ioos:station:TCOON:009:1,2017-09-12T23:18:00Z,27.8398,-97.0727,1.81,1111122 
TCOON,ioos:station:TCOON:009:1,2017-09-13T00:18:00Z,27.8398,-97.0727,1.839,1111122 
TCOON,ioos:station:TCOON:009:1,2017-09-13T01:18:00Z,27.8398,-97.0727,1.863,1111122 
TCOON,ioos:station:TCOON:009:1,2017-09-13T02:18:00Z,27.8398,-97.0727,1.912,1111122 
TCOON,ioos:station:TCOON:009:1,2017-09-13T03:18:00Z,27.8398,-97.0727,1.928,1111122 
TCOON,ioos:station:TCOON:009:1,2017-09-13T04:18:00Z,27.8398,-97.0727,1.935,1111122 
TCOON,ioos:station:TCOON:009:1,2017-09-13T05:18:00Z,27.8398,-97.0727,1.919,1111122 
TCOON,ioos:station:TCOON:009:1,2017-09-13T06:18:00Z,27.8398,-97.0727,1.934,1111122 
TCOON,ioos:station:TCOON:009:1,2017-09-13T07:18:00Z,27.8398,-97.0727,1.933,1111122 
TCOON,ioos:station:TCOON:009:1,2017-09-13T08:18:00Z,27.8398,-97.0727,1.932,1111122 
TCOON,ioos:station:TCOON:009:1,2017-09-13T09:18:00Z,27.8398,-97.0727,1.928,1111122 
TCOON,ioos:station:TCOON:009:1,2017-09-13T10:18:00Z,27.8398,-97.0727,1.922,1111122 
TCOON,ioos:station:TCOON:009:1,2017-09-13T11:18:00Z,27.8398,-97.0727,1.917,1111122 
TCOON,ioos:station:TCOON:009:1,2017-09-13T12:18:00Z,27.8398,-97.0727,1.901,1111122 
TCOON,ioos:station:TCOON:009:1,2017-09-13T13:18:00Z,27.8398,-97.0727,1.897,1111122 
TCOON,ioos:station:TCOON:009:1,2017-09-13T14:18:00Z,27.8398,-97.0727,1.88,1111122 
TCOON,ioos:station:TCOON:009:1,2017-09-13T15:18:00Z,27.8398,-97.0727,1.817,1111122 
TCOON,ioos:station:TCOON:009:1,2017-09-13T16:18:00Z,27.8398,-97.0727,1.755,1111122 
TCOON,ioos:station:TCOON:009:1,2017-09-13T17:18:00Z,27.8398,-97.0727,1.702,1111122 
TCOON,ioos:station:TCOON:009:1,2017-09-13T18:18:00Z,27.8398,-97.0727,1.661,1111122 
TCOON,ioos:station:TCOON:009:1,2017-09-13T19:18:00Z,27.8398,-97.0727,1.609,1111122 
TCOON,ioos:station:TCOON:009:1,2017-09-13T20:18:00Z,27.8398,-97.0727,1.554,1111122 
TCOON,ioos:station:TCOON:009:1,2017-09-13T21:18:00Z,27.8398,-97.0727,1.559,1111122 
TCOON,ioos:station:TCOON:009:1,2017-09-13T22:18:00Z,27.8398,-97.0727,1.582,1111122 
TCOON,ioos:station:TCOON:009:1,2017-09-13T23:18:00Z,27.8398,-97.0727,1.639,1111122 
TCOON,ioos:station:TCOON:009:1,2017-09-14T00:18:00Z,27.8398,-97.0727,1.661,1111122 
TCOON,ioos:station:TCOON:009:1,2017-09-14T01:18:00Z,27.8398,-97.0727,1.719,1111122 
TCOON,ioos:station:TCOON:009:1,2017-09-14T02:18:00Z,27.8398,-97.0727,1.772,1111122 
TCOON,ioos:station:TCOON:009:1,2017-09-14T03:18:00Z,27.8398,-97.0727,1.823,1111122 
TCOON,ioos:station:TCOON:009:1,2017-09-14T04:18:00Z,27.8398,-97.0727,1.831,1111122 
TCOON,ioos:station:TCOON:009:1,2017-09-14T05:18:00Z,27.8398,-97.0727,1.843,1111122 
TCOON,ioos:station:TCOON:009:1,2017-09-14T06:18:00Z,27.8398,-97.0727,1.845,1111122 
TCOON,ioos:station:TCOON:009:1,2017-09-14T07:18:00Z,27.8398,-97.0727,1.847,1111122 
TCOON,ioos:station:TCOON:009:1,2017-09-14T08:18:00Z,27.8398,-97.0727,1.853,1111122 
TCOON,ioos:station:TCOON:009:1,2017-09-14T09:18:00Z,27.8398,-97.0727,1.85,1111122 
TCOON,ioos:station:TCOON:009:1,2017-09-14T10:18:00Z,27.8398,-97.0727,1.836,1111122 
TCOON,ioos:station:TCOON:009:1,2017-09-14T11:18:00Z,27.8398,-97.0727,1.824,1111122 
TCOON,ioos:station:TCOON:009:1,2017-09-14T12:18:00Z,27.8398,-97.0727,1.811,1111122 
TCOON,ioos:station:TCOON:009:1,2017-09-14T13:18:00Z,27.8398,-97.0727,1.814,1111122 
TCOON,ioos:station:TCOON:009:1,2017-09-14T14:18:00Z,27.8398,-97.0727,1.783,1111122 
TCOON,ioos:station:TCOON:009:1,2017-09-14T15:18:00Z,27.8398,-97.0727,1.776,1111122 
TCOON,ioos:station:TCOON:009:1,2017-09-14T16:18:00Z,27.8398,-97.0727,1.752,1111122 
TCOON,ioos:station:TCOON:009:1,2017-09-14T17:18:00Z,27.8398,-97.0727,1.701,1111122 
TCOON,ioos:station:TCOON:009:1,2017-09-14T18:18:00Z,27.8398,-97.0727,1.629,1111122 